Location: Henham
(51.9333°N, 0.2500°E)
Time: 09:26:58
(UTC+00:00)

STARLINK-25 - Pass Details

Date: 23 October 2019
Orbit: 548 x 552 km, 53.0° (Epoch: 21 November)

Event Time Altitude Azimuth Distance (km) Brightness Sun altitude
Rises 17:32:53 0° 271° (W) 2,724 9.3 -7.4°
Reaches altitude 10° 17:35:08 10° 273° (W) 1,829 7.9 -7.8°
Maximum altitude 17:39:17 75° 359° (N) 575 3.7 -8.4°
Enters shadow 17:43:07 12° 85° (E) 1,700 5.4 -9.0°
